Date String (YYYY-MM-DD hh:mm:ss) UTC,Instrument flags,absolute air pressure of the measurement (hPa),sample flow rate (lpm),inlet stack bypass flow (lpm),air temperature of the measurement (°C),ambient temperature measured by the external sensor (°C),aerosol sample conditioner tube jacket temperature (°C),OPC LED temperature (°C),internal box temperature (°C),relative humidity of the measurement (%),span deviation,mass concentration of particles derived from Lorenz-Mie calculation of OPC scattering (μg/m³),mass concentration of particles derived from Lorenz-Mie calculation of OPC scattering (μg/m³),mass concentration of particles derived from Lorenz-Mie calculation of OPC scattering (μg/m³)
DateTimeUTC,F1_M11,P_M11,Q1_M11,Q2_M11,T1_M11,T2_M11,T3_M11,T4_M11,T5_M11,U1_M11,ZSPAN_M11,X0_M11,X2_M11,X1_M11
2024-01-25 12:00:00,SystemResetWarning,0826.4,4.99,000.00,021.2,020.2,000.0,029.6,022.5,15.6,0000.0,0010.03,0004.39,0004.09
2024-01-25 12:01:00,SystemResetWarning,0826.4,4.99,000.00,021.2,020.2,000.0,029.6,022.5,15.6,0000.0,0009.46,0004.35,0004.08
2024-01-25 12:02:00,SystemResetWarning,0826.4,4.99,000.00,021.2,020.2,000.0,029.5,022.5,15.6,0000.0,0008.81,0004.36,0004.07
2024-01-25 12:03:00,SystemResetWarning,0826.4,5.00,000.00,021.2,020.1,000.0,029.5,022.5,15.7,0000.0,0008.49,0004.37,0004.08
2024-01-25 12:04:00,SystemResetWarning,0826.4,5.02,000.00,021.2,020.1,000.0,029.5,022.5,15.7,0000.0,0008.40,0004.39,0004.09
2024-01-25 12:05:00,SystemResetWarning,0826.4,5.00,000.00,021.2,020.1,000.0,029.5,022.5,15.7,0000.0,0008.39,0004.39,0004.09
2024-01-25 12:06:00,SystemResetWarning,0826.4,4.99,000.00,021.1,020.1,000.0,029.5,022.5,15.8,0000.0,0007.99,0004.41,0004.10
2024-01-25 12:07:00,SystemResetWarning,0826.4,4.99,000.00,021.1,020.1,000.0,029.5,022.5,15.6,0000.0,0007.80,0004.41,0004.11
2024-01-25 12:08:00,SystemResetWarning,0826.4,5.00,000.00,021.1,020.0,000.0,029.5,022.5,15.5,0000.0,0007.52,0004.44,0004.12
2024-01-25 12:09:00,SystemResetWarning,0826.4,5.00,000.00,021.1,020.0,000.0,029.5,022.5,15.3,0000.0,0007.39,0004.46,0004.14
2024-01-25 12:10:00,SystemResetWarning,0826.4,5.01,000.00,021.1,020.0,000.0,029.5,022.4,15.2,0000.0,0007.33,0004.45,0004.14
2024-01-25 12:11:00,SystemResetWarning,0826.4,5.00,000.00,021.1,020.0,000.0,029.5,022.4,15.1,0000.0,0006.78,0004.45,0004.15
2024-01-25 12:12:00,SystemResetWarning,0826.4,5.01,000.00,021.1,020.0,000.0,029.5,022.4,15.2,0000.0,0006.80,0004.44,0004.16
2024-01-25 12:13:00,SystemResetWarning,0826.4,5.00,000.00,021.1,020.0,000.0,029.5,022.4,15.3,0000.0,0007.09,0004.45,0004.16
2024-01-25 12:14:00,SystemResetWarning,0826.4,5.00,000.00,021.1,019.9,000.0,029.5,022.4,15.5,0000.0,0007.79,0004.44,0004.15
2024-01-25 12:15:00,SystemResetWarning,0826.4,5.00,000.00,021.1,019.9,000.0,029.5,022.4,15.6,0000.0,0007.81,0004.42,0004.13
2024-01-25 12:16:00,SystemResetWarning,0826.4,5.00,000.00,021.1,019.9,000.0,029.5,022.4,15.6,0000.0,0007.94,0004.39,0004.11
2024-01-25 12:17:00,SystemResetWarning,0826.4,5.00,000.00,021.1,019.9,000.0,029.4,022.4,15.6,0000.0,0008.26,0004.35,0004.09
2024-01-25 12:18:00,SystemResetWarning,0826.4,5.00,000.00,021.1,019.9,000.0,029.4,022.4,15.6,0000.0,0008.27,0004.35,0004.09
2024-01-25 12:19:00,SystemResetWarning,0826.4,5.00,000.00,021.0,019.9,000.0,029.4,022.4,15.7,0000.0,0008.25,0004.34,0004.07
2024-01-25 12:20:00,SystemResetWarning,0826.4,4.99,000.00,021.0,019.9,000.0,029.4,022.4,15.8,0000.0,0008.23,0004.30,0004.04
2024-01-25 12:21:00,SystemResetWarning,0826.4,5.00,000.00,021.0,019.9,000.0,029.4,022.3,15.5,0000.0,0008.29,0004.29,0004.01
2024-01-25 12:22:00,SystemResetWarning,0826.4,5.00,000.00,021.0,019.9,000.0,029.4,022.3,15.2,0000.0,0008.29,0004.27,0003.98
2024-01-25 12:23:00,SystemResetWarning,0826.4,5.00,000.00,021.0,019.9,000.0,029.4,022.3,15.0,0000.0,0008.31,0004.29,0003.98
2024-01-25 12:24:00,SystemResetWarning,0826.4,5.00,000.00,021.0,019.8,000.0,029.4,022.3,14.9,0000.0,0008.25,0004.31,0003.98
2024-01-25 12:25:00,SystemResetWarning,0826.4,5.01,000.00,021.0,019.8,000.0,029.4,022.3,14.7,0000.0,0007.76,0004.32,0003.99
2024-01-25 12:26:00,SystemResetWarning,0826.4,5.01,000.00,021.0,019.8,000.0,029.4,022.3,14.6,0000.0,0008.47,0004.36,0004.02
2024-01-25 12:27:00,SystemResetWarning,0826.4,5.00,000.00,021.0,019.8,000.0,029.4,022.3,14.6,0000.0,0008.94,0004.38,0004.05
2024-01-25 12:28:00,SystemResetWarning,0826.4,4.99,000.00,021.0,019.8,000.0,029.4,022.3,14.7,0000.0,0008.53,0004.40,0004.06
2024-01-25 12:29:00,SystemResetWarning,0826.4,4.99,000.00,021.0,019.8,000.0,029.3,022.3,14.7,0000.0,0008.49,0004.40,0004.07
2024-01-25 12:30:00,SystemResetWarning,0826.4,5.00,000.00,020.9,019.8,000.0,029.3,022.2,14.5,0000.0,0008.51,0004.40,0004.07
2024-01-25 12:31:00,SystemResetWarning,0826.4,5.01,000.00,020.9,019.8,000.0,029.3,022.2,14.5,0000.0,0008.52,0004.38,0004.06
2024-01-25 12:32:00,SystemResetWarning,0826.3,5.00,000.00,020.9,019.7,000.0,029.3,022.2,14.4,0000.0,0008.46,0004.36,0004.06
2024-01-25 12:33:00,SystemResetWarning,0826.3,5.00,000.00,020.9,019.7,000.0,029.3,022.2,14.3,0000.0,0008.40,0004.32,0004.03
2024-01-25 12:34:00,SystemResetWarning,0826.4,4.99,000.00,020.9,019.7,000.0,029.3,022.2,14.3,0000.0,0008.25,0004.24,0003.98
2024-01-25 12:35:00,SystemResetWarning,0826.4,4.99,000.00,020.9,019.7,000.0,029.3,022.2,14.2,0000.0,0008.31,0004.15,0003.92
2024-01-25 12:36:00,SystemResetWarning,0826.4,5.01,000.00,020.9,019.7,000.0,029.3,022.2,14.2,0000.0,0008.92,0004.10,0003.86
2024-01-25 12:37:00,SystemResetWarning,0826.3,5.01,000.00,020.9,019.7,000.0,029.3,022.2,14.1,0000.0,0008.47,0004.02,0003.81
2024-01-25 12:38:00,SystemResetWarning,0826.2,4.99,000.00,020.9,019.7,000.0,029.3,022.1,14.2,0000.0,0008.03,0003.95,0003.76
2024-01-25 12:39:00,SystemResetWarning,0826.2,4.99,000.00,020.8,019.7,000.0,029.3,022.1,14.2,0000.0,0008.19,0003.90,0003.71
2024-01-25 12:40:00,SystemResetWarning,0826.2,5.01,000.00,020.8,019.6,000.0,029.2,022.1,14.3,0000.0,0008.09,0003.85,0003.68
2024-01-25 12:41:00,SystemResetWarning,0826.2,5.01,000.00,020.8,019.6,000.0,029.2,022.1,14.6,0000.0,0008.03,0003.81,0003.66
2024-01-25 12:42:00,SystemResetWarning,0826.3,4.98,000.00,020.8,019.6,000.0,029.2,022.1,14.6,0000.0,0008.09,0003.82,0003.67
2024-01-25 12:43:00,SystemResetWarning,0826.3,4.99,000.00,020.8,019.6,000.0,029.2,022.1,14.6,0000.0,0008.10,0003.84,0003.69
2024-01-25 12:44:00,SystemResetWarning,0826.3,5.01,000.00,020.8,019.6,000.0,029.2,022.0,14.7,0000.0,0008.64,0003.88,0003.71
2024-01-25 12:45:00,SystemResetWarning,0826.3,5.01,000.00,020.8,019.6,000.0,029.2,022.0,14.8,0000.0,0008.83,0003.89,0003.71
2024-01-25 12:46:00,SystemResetWarning,0826.3,5.00,000.00,020.8,019.6,000.0,029.2,022.0,14.7,0000.0,0008.90,0003.90,0003.70
2024-01-25 12:47:00,SystemResetWarning,0826.3,5.01,000.00,020.7,019.5,000.0,029.2,022.0,14.9,0000.0,0008.12,0003.90,0003.70
2024-01-25 12:48:00,SystemResetWarning,0826.3,5.00,000.00,020.7,019.5,000.0,029.1,022.0,14.9,0000.0,0007.85,0003.86,0003.66
2024-01-25 12:49:00,SystemResetWarning,0826.4,4.99,000.00,020.7,019.5,000.0,029.1,022.0,14.9,0000.0,0007.84,0003.81,0003.61
2024-01-25 12:50:00,SystemResetWarning,0826.4,5.00,000.00,020.7,019.5,000.0,029.1,022.0,14.8,0000.0,0007.69,0003.74,0003.55
2024-01-25 12:51:00,SystemResetWarning,0826.4,5.01,000.00,020.7,019.5,000.0,029.1,022.0,14.7,0000.0,0007.58,0003.67,0003.49
2024-01-25 12:52:00,SystemResetWarning,0826.3,5.00,000.00,020.7,019.5,000.0,029.1,022.0,14.7,0000.0,0007.53,0003.60,0003.42
2024-01-25 12:53:00,SystemResetWarning,0826.3,5.00,000.00,020.7,019.5,000.0,029.1,022.0,14.7,0000.0,0007.31,0003.50,0003.34
2024-01-25 12:54:00,SystemResetWarning,0826.4,5.00,000.00,020.7,019.5,000.0,029.1,022.0,14.8,0000.0,0007.11,0003.40,0003.24
2024-01-25 12:55:00,SystemResetWarning,0826.4,5.00,000.00,020.7,019.5,000.0,029.1,022.0,15.0,0000.0,0006.42,0003.30,0003.15
2024-01-25 12:56:00,SystemResetWarning,0826.4,5.00,000.00,020.7,019.5,000.0,029.1,022.0,15.4,0000.0,0005.48,0003.19,0003.04
2024-01-25 12:57:00,SystemResetWarning,0826.4,5.00,000.00,020.7,019.5,000.0,029.0,022.0,15.1,0000.0,0005.30,0003.13,0002.93
2024-01-25 12:58:00,SystemResetWarning,0826.4,5.00,000.00,020.6,019.5,000.0,029.0,022.0,15.2,0000.0,0005.29,0003.07,0002.84
2024-01-25 12:59:00,SystemResetWarning,0826.4,5.00,000.00,020.6,019.5,000.0,029.0,022.0,15.4,0000.0,0005.19,0002.95,0002.71
